BAW820 EGLL-EKCH

Flight info

Callsign BAW820
Flight time 1h 17m
Altitude 37000
Route BPK Q295 SOMVA DCT MAVAS DCT ROCZO DCT DOSUR P729 TUDLO
Aircraft A320/M-SDE3FGHIRWY/LB1

Departure

Time 2026-05-05 16:27
Airport London Heathrow Airport (EGLL)

Arrival

Time 2026-05-05 17:45
Airport Copenhagen Kastrup Airport (EKCH)
Time Latitude Longitude Altitude Speed Heading
2026-05-05 15:53 51.47270 -0.48588 89 ft 0 kts 270°
2026-05-05 16:02 51.47270 -0.48587 87 ft 0 kts 270°
2026-05-05 16:09 51.47271 -0.48555 88 ft 4 kts 270°
2026-05-05 16:09 51.47271 -0.48521 89 ft 4 kts 263°
2026-05-05 16:10 51.47279 -0.48485 87 ft 4 kts 214°
2026-05-05 16:10 51.47299 -0.48476 87 ft 2 kts 180°
2026-05-05 16:10 51.47300 -0.48476 87 ft 3 kts 180°
2026-05-05 16:13 51.47295 -0.48475 87 ft 2 kts 176°
2026-05-05 16:14 51.47249 -0.48369 88 ft 10 kts 147°
2026-05-05 16:14 51.47090 -0.48360 87 ft 13 kts 180°
2026-05-05 16:15 51.46882 -0.48358 87 ft 15 kts 179°
2026-05-05 16:15 51.46818 -0.48357 89 ft 0 kts 179°
2026-05-05 16:16 51.46816 -0.48357 89 ft 2 kts 179°
2026-05-05 16:17 51.46741 -0.48460 87 ft 12 kts 270°
2026-05-05 16:17 51.46741 -0.48625 87 ft 16 kts 269°
2026-05-05 16:18 51.46696 -0.48748 89 ft 0 kts 180°
2026-05-05 16:19 51.46695 -0.48748 89 ft 0 kts 180°
2026-05-05 16:20 51.46662 -0.48750 87 ft 4 kts 181°
2026-05-05 16:20 51.46638 -0.48752 87 ft 0 kts 186°
2026-05-05 16:21 51.46639 -0.48752 87 ft 0 kts 186°
2026-05-05 16:23 51.46617 -0.48760 90 ft 4 kts 197°
2026-05-05 16:23 51.46591 -0.48775 89 ft 0 kts 200°
2026-05-05 16:25 51.46591 -0.48776 87 ft 1 kts 200°
2026-05-05 16:25 51.46558 -0.48791 89 ft 10 kts 189°
2026-05-05 16:26 51.46477 -0.48646 88 ft 0 kts 90°
2026-05-05 16:26 51.46477 -0.48577 88 ft 28 kts 90°
2026-05-05 16:27 51.46479 -0.47881 87 ft 94 kts 89°
2026-05-05 16:27 51.46484 -0.46539 92 ft 144 kts 89°
2026-05-05 16:27 51.46485 -0.44756 227 ft 169 kts 89°
2026-05-05 16:27 51.46475 -0.42920 984 ft 160 kts 86°
2026-05-05 16:28 51.46585 -0.41151 1569 ft 161 kts 72°
2026-05-05 16:28 51.47178 -0.39583 1944 ft 174 kts 47°
2026-05-05 16:28 51.48031 -0.38038 2203 ft 197 kts 48°
2026-05-05 16:28 51.48976 -0.36247 2514 ft 222 kts 50°
2026-05-05 16:29 51.50005 -0.34248 2979 ft 242 kts 50°
2026-05-05 16:29 51.51092 -0.32106 3682 ft 252 kts 50°
2026-05-05 16:29 51.52191 -0.29896 4560 ft 255 kts 53°
2026-05-05 16:29 51.53029 -0.27363 5390 ft 261 kts 69°
2026-05-05 16:30 51.53613 -0.24594 6275 ft 264 kts 69°
2026-05-05 16:30 51.54437 -0.21966 7054 ft 266 kts 50°
2026-05-05 16:30 51.55862 -0.20070 7727 ft 272 kts 29°
2026-05-05 16:30 51.57555 -0.18694 8572 ft 275 kts 23°
2026-05-05 16:31 51.59344 -0.17570 9355 ft 279 kts 13°
2026-05-05 16:31 51.61250 -0.16865 10082 ft 284 kts 13°
2026-05-05 16:31 51.63203 -0.16077 10505 ft 300 kts 14°
2026-05-05 16:31 51.65291 -0.15170 10682 ft 322 kts 14°
2026-05-05 16:32 51.67487 -0.14196 11156 ft 331 kts 14°
2026-05-05 16:32 51.69721 -0.13224 11815 ft 335 kts 14°
2026-05-05 16:32 51.71966 -0.12125 12474 ft 339 kts 21°
2026-05-05 16:32 51.74036 -0.10381 13104 ft 343 kts 33°
2026-05-05 16:33 51.75874 -0.07887 13775 ft 347 kts 46°
2026-05-05 16:33 51.77363 -0.04795 14344 ft 352 kts 56°
2026-05-05 16:33 51.78695 -0.01457 14928 ft 355 kts 57°
2026-05-05 16:33 51.80039 0.01898 15475 ft 357 kts 57°
2026-05-05 16:34 51.81401 0.05283 16029 ft 361 kts 57°
2026-05-05 16:34 51.82786 0.08724 16495 ft 368 kts 57°
2026-05-05 16:34 51.84184 0.12208 17062 ft 371 kts 57°
2026-05-05 16:34 51.85595 0.15732 17619 ft 375 kts 57°
2026-05-05 16:35 51.87018 0.19289 18199 ft 378 kts 57°
2026-05-05 16:35 51.88451 0.22881 18691 ft 382 kts 57°
2026-05-05 16:35 51.89898 0.26512 19218 ft 385 kts 57°
2026-05-05 16:35 51.91358 0.30178 19696 ft 390 kts 57°
2026-05-05 16:36 51.92832 0.33883 20223 ft 393 kts 57°
2026-05-05 16:36 51.94294 0.37571 20722 ft 396 kts 57°
2026-05-05 16:36 51.95787 0.41346 21213 ft 399 kts 57°
2026-05-05 16:36 51.97292 0.45156 21711 ft 403 kts 57°
2026-05-05 16:37 51.98807 0.48998 22188 ft 406 kts 57°
2026-05-05 16:37 52.00334 0.52867 22699 ft 408 kts 57°
2026-05-05 16:37 52.01873 0.56762 23168 ft 411 kts 57°
2026-05-05 16:37 52.03417 0.60678 23631 ft 414 kts 57°
2026-05-05 16:38 52.04448 0.63298 23863 ft 416 kts 57°
2026-05-05 16:38 52.06007 0.67281 24247 ft 419 kts 58°
2026-05-05 16:38 52.07578 0.71301 24619 ft 422 kts 58°
2026-05-05 16:38 52.09159 0.75345 24985 ft 425 kts 58°
2026-05-05 16:39 52.10753 0.79422 25339 ft 428 kts 58°
2026-05-05 16:39 52.12354 0.83524 25695 ft 431 kts 58°
2026-05-05 16:39 52.13961 0.87658 26043 ft 434 kts 58°
2026-05-05 16:39 52.15578 0.91828 26392 ft 436 kts 58°
2026-05-05 16:40 52.17201 0.96024 26734 ft 439 kts 59°
2026-05-05 16:40 52.18832 1.00247 27067 ft 441 kts 59°
2026-05-05 16:40 52.20463 1.04472 27518 ft 441 kts 59°
2026-05-05 16:40 52.22089 1.08686 27899 ft 442 kts 59°
2026-05-05 16:41 52.23740 1.12966 28245 ft 444 kts 59°
2026-05-05 16:41 52.25391 1.17249 28581 ft 447 kts 59°
2026-05-05 16:41 52.27025 1.21495 28903 ft 449 kts 59°
2026-05-05 16:41 52.28689 1.25828 29179 ft 453 kts 59°
2026-05-05 16:42 52.30374 1.30225 29332 ft 459 kts 59°
2026-05-05 16:42 52.32073 1.34674 29579 ft 463 kts 59°
2026-05-05 16:42 52.33780 1.39156 29936 ft 465 kts 59°
2026-05-05 16:42 52.35487 1.43641 30332 ft 464 kts 59°
2026-05-05 16:43 52.37188 1.48120 30734 ft 463 kts 59°
2026-05-05 16:43 52.38881 1.52584 31220 ft 459 kts 59°
2026-05-05 16:43 52.40559 1.57012 31733 ft 456 kts 59°
2026-05-05 16:43 52.42225 1.61424 32165 ft 455 kts 59°
2026-05-05 16:44 52.43887 1.65832 32561 ft 454 kts 59°
2026-05-05 16:44 52.45545 1.70240 32947 ft 454 kts 59°
2026-05-05 16:44 52.47204 1.74659 33333 ft 454 kts 59°
2026-05-05 16:44 52.48857 1.79068 33714 ft 454 kts 59°
2026-05-05 16:45 52.50514 1.83484 34064 ft 454 kts 59°
2026-05-05 16:45 52.52169 1.87903 34311 ft 456 kts 59°
2026-05-05 16:45 52.53831 1.92352 34513 ft 458 kts 59°
2026-05-05 16:45 52.55476 1.96757 34774 ft 458 kts 59°
2026-05-05 16:46 52.57139 2.01217 35068 ft 458 kts 59°
2026-05-05 16:46 52.58820 2.05738 35359 ft 457 kts 59°
2026-05-05 16:46 52.60473 2.10200 35642 ft 456 kts 59°
2026-05-05 16:46 52.62098 2.14596 35913 ft 456 kts 59°
2026-05-05 16:47 52.63746 2.19057 36183 ft 455 kts 59°
2026-05-05 16:47 52.65390 2.23507 36452 ft 455 kts 59°
2026-05-05 16:47 52.67033 2.27963 36702 ft 455 kts 59°
2026-05-05 16:47 52.68670 2.32417 36915 ft 455 kts 59°
2026-05-05 16:48 52.71963 2.41422 36966 ft 462 kts 59°
2026-05-05 16:48 52.75290 2.50543 36969 ft 464 kts 59°
2026-05-05 16:49 52.78621 2.59706 36969 ft 465 kts 59°
2026-05-05 16:49 52.81948 2.68883 36970 ft 465 kts 59°
2026-05-05 16:50 52.85271 2.78084 36973 ft 466 kts 59°
2026-05-05 16:50 52.88563 2.87235 36975 ft 466 kts 59°
2026-05-05 16:51 52.91879 2.96470 36977 ft 466 kts 59°
2026-05-05 16:51 52.95183 3.05712 36978 ft 466 kts 60°
2026-05-05 16:52 52.98486 3.14982 36990 ft 467 kts 60°
2026-05-05 16:52 53.01777 3.24274 36984 ft 467 kts 60°
2026-05-05 16:53 53.05060 3.33569 36994 ft 467 kts 60°
2026-05-05 16:53 53.08342 3.42886 36993 ft 467 kts 60°
2026-05-05 16:54 53.11613 3.52230 36999 ft 467 kts 60°
2026-05-05 16:54 53.14879 3.61578 36990 ft 467 kts 60°
2026-05-05 16:55 53.18136 3.70939 36979 ft 467 kts 60°
2026-05-05 16:55 53.21370 3.80260 36991 ft 467 kts 60°
2026-05-05 16:56 53.24623 3.89662 36975 ft 468 kts 60°
2026-05-05 16:56 53.27867 3.99089 36977 ft 468 kts 60°
2026-05-05 16:57 53.31107 4.08533 36979 ft 468 kts 60°
2026-05-05 16:57 53.34337 4.18003 36979 ft 469 kts 60°
2026-05-05 16:58 53.37562 4.27504 36981 ft 469 kts 60°
2026-05-05 16:58 53.40795 4.37025 36988 ft 470 kts 61°
2026-05-05 16:59 53.43996 4.46504 36989 ft 470 kts 61°
2026-05-05 16:59 53.47227 4.56121 36998 ft 470 kts 61°
2026-05-05 17:00 53.50412 4.65636 36997 ft 470 kts 61°
2026-05-05 17:00 53.53611 4.75224 37000 ft 470 kts 61°
2026-05-05 17:01 53.56804 4.84826 37003 ft 470 kts 61°
2026-05-05 17:01 53.59992 4.94442 37002 ft 470 kts 61°
2026-05-05 17:02 53.63164 5.04068 37005 ft 470 kts 62°
2026-05-05 17:02 53.66326 5.13727 37009 ft 471 kts 62°
2026-05-05 17:03 53.69490 5.23414 36977 ft 472 kts 62°
2026-05-05 17:03 53.72665 5.33127 36976 ft 473 kts 62°
2026-05-05 17:04 53.75839 5.42867 36966 ft 474 kts 62°
2026-05-05 17:04 53.78978 5.52590 36972 ft 474 kts 62°
2026-05-05 17:05 53.82127 5.62388 36980 ft 474 kts 62°
2026-05-05 17:05 53.85281 5.72217 36983 ft 475 kts 62°
2026-05-05 17:06 53.88429 5.82069 36981 ft 475 kts 62°
2026-05-05 17:06 53.91571 5.91945 36977 ft 476 kts 62°
2026-05-05 17:07 53.94706 6.01840 36981 ft 477 kts 62°
2026-05-05 17:07 53.97842 6.11771 36978 ft 477 kts 62°
2026-05-05 17:08 54.00971 6.21727 36979 ft 477 kts 63°
2026-05-05 17:08 54.04063 6.31633 36982 ft 477 kts 63°
2026-05-05 17:09 54.07168 6.41627 36963 ft 478 kts 63°
2026-05-05 17:09 54.10285 6.51640 36989 ft 479 kts 62°
2026-05-05 17:10 54.13398 6.61685 36984 ft 479 kts 63°
2026-05-05 17:10 54.16495 6.71745 36983 ft 479 kts 63°
2026-05-05 17:11 54.19573 6.81830 36981 ft 479 kts 63°
2026-05-05 17:11 54.22646 6.91920 36963 ft 479 kts 63°
2026-05-05 17:12 54.25718 7.02038 36958 ft 480 kts 63°
2026-05-05 17:12 54.28792 7.12175 36961 ft 481 kts 63°
2026-05-05 17:13 54.31864 7.22354 36985 ft 481 kts 63°
2026-05-05 17:13 54.34916 7.32543 36980 ft 480 kts 63°
2026-05-05 17:14 54.37942 7.42677 36979 ft 480 kts 63°
2026-05-05 17:14 54.40982 7.52880 36965 ft 480 kts 63°
2026-05-05 17:15 54.44002 7.63108 36958 ft 481 kts 63°
2026-05-05 17:15 54.47029 7.73381 36959 ft 482 kts 63°
2026-05-05 17:16 54.50054 7.83671 36986 ft 482 kts 63°
2026-05-05 17:16 54.53065 7.93972 36982 ft 482 kts 63°
2026-05-05 17:17 54.56067 8.04280 36970 ft 481 kts 63°
2026-05-05 17:17 54.59053 8.14587 36963 ft 481 kts 63°
2026-05-05 17:18 54.62037 8.24926 36953 ft 481 kts 63°
2026-05-05 17:18 54.65010 8.35291 36955 ft 482 kts 64°
2026-05-05 17:19 54.67972 8.45685 36958 ft 482 kts 64°
2026-05-05 17:19 54.70940 8.56106 36974 ft 482 kts 64°
2026-05-05 17:20 54.73893 8.66517 36972 ft 482 kts 64°
2026-05-05 17:20 54.76818 8.76871 36960 ft 482 kts 64°
2026-05-05 17:21 54.79750 8.87311 36959 ft 482 kts 64°
2026-05-05 17:22 54.84130 9.03009 36954 ft 482 kts 64°
2026-05-05 17:22 54.87040 9.13492 36958 ft 482 kts 64°
2026-05-05 17:23 54.89945 9.24006 36565 ft 484 kts 64°
2026-05-05 17:23 54.91398 9.29279 35936 ft 484 kts 64°
2026-05-05 17:23 54.92855 9.34575 35193 ft 487 kts 64°
2026-05-05 17:23 54.94319 9.39901 34462 ft 489 kts 64°
2026-05-05 17:24 54.95779 9.45240 33722 ft 490 kts 64°
2026-05-05 17:24 54.97244 9.50611 32898 ft 491 kts 64°
2026-05-05 17:24 54.98706 9.55981 32100 ft 492 kts 64°
2026-05-05 17:24 55.00171 9.61376 31322 ft 493 kts 64°
2026-05-05 17:25 55.01634 9.66774 30563 ft 493 kts 64°
2026-05-05 17:25 55.02109 9.68526 30319 ft 493 kts 64°
2026-05-05 17:25 55.04558 9.77594 28945 ft 493 kts 64°
2026-05-05 17:25 55.06015 9.83006 28113 ft 493 kts 64°
2026-05-05 17:26 55.07448 9.88348 27316 ft 492 kts 64°
2026-05-05 17:26 55.08896 9.93753 26522 ft 490 kts 64°
2026-05-05 17:26 55.10334 9.99134 25757 ft 489 kts 64°
2026-05-05 17:26 55.11765 10.04507 25030 ft 486 kts 64°
2026-05-05 17:27 55.13184 10.09847 24317 ft 484 kts 64°
2026-05-05 17:27 55.14599 10.15187 23637 ft 482 kts 64°
2026-05-05 17:27 55.15991 10.20457 23100 ft 474 kts 64°
2026-05-05 17:27 55.17359 10.25651 22550 ft 467 kts 64°
2026-05-05 17:28 55.18709 10.30775 22013 ft 460 kts 64°
2026-05-05 17:28 55.20038 10.35819 21493 ft 454 kts 64°
2026-05-05 17:28 55.21351 10.40819 20979 ft 449 kts 64°
2026-05-05 17:28 55.22645 10.45770 20462 ft 445 kts 64°
2026-05-05 17:29 55.23927 10.50684 19966 ft 442 kts 64°
2026-05-05 17:29 55.25196 10.55563 19477 ft 439 kts 64°
2026-05-05 17:29 55.26456 10.60419 18992 ft 436 kts 64°
2026-05-05 17:29 55.27657 10.65275 18514 ft 433 kts 70°
2026-05-05 17:30 55.28256 10.68605 18197 ft 431 kts 73°
2026-05-05 17:30 55.29116 10.73623 17656 ft 428 kts 73°
2026-05-05 17:30 55.29967 10.78604 17123 ft 424 kts 73°
2026-05-05 17:30 55.30810 10.83537 16651 ft 419 kts 73°
2026-05-05 17:31 55.31632 10.88378 16382 ft 408 kts 73°
2026-05-05 17:31 55.32432 10.93096 16123 ft 398 kts 73°
2026-05-05 17:31 55.33211 10.97697 15866 ft 388 kts 73°
2026-05-05 17:31 55.33965 11.02185 15611 ft 379 kts 73°
2026-05-05 17:32 55.34667 11.06596 15359 ft 371 kts 77°
2026-05-05 17:32 55.35170 11.10991 15032 ft 366 kts 79°
2026-05-05 17:32 55.35631 11.15389 14528 ft 366 kts 80°
2026-05-05 17:32 55.36069 11.19809 14049 ft 367 kts 80°
2026-05-05 17:33 55.36498 11.24235 13545 ft 367 kts 80°
2026-05-05 17:33 55.36924 11.28644 13010 ft 366 kts 80°
2026-05-05 17:33 55.37347 11.32998 12551 ft 364 kts 80°
2026-05-05 17:33 55.37776 11.37365 12160 ft 359 kts 80°
2026-05-05 17:34 55.38200 11.41666 11777 ft 355 kts 80°
2026-05-05 17:34 55.38621 11.45917 11406 ft 351 kts 80°
2026-05-05 17:34 55.39037 11.50128 11019 ft 347 kts 80°
2026-05-05 17:34 55.39448 11.54293 10643 ft 344 kts 79°
2026-05-05 17:35 55.39853 11.58417 10279 ft 341 kts 79°
2026-05-05 17:35 55.40250 11.62488 9874 ft 332 kts 80°
2026-05-05 17:35 55.40630 11.66426 9422 ft 319 kts 80°
2026-05-05 17:35 55.40994 11.70204 8965 ft 308 kts 79°
2026-05-05 17:36 55.41344 11.73865 8564 ft 299 kts 79°
2026-05-05 17:36 55.41687 11.77471 8210 ft 299 kts 79°
2026-05-05 17:36 55.42030 11.81072 7844 ft 298 kts 79°
2026-05-05 17:36 55.42373 11.84655 7485 ft 297 kts 79°
2026-05-05 17:37 55.42715 11.88238 7107 ft 296 kts 79°
2026-05-05 17:37 55.43056 11.91813 6733 ft 295 kts 79°
2026-05-05 17:37 55.43395 11.95369 6361 ft 294 kts 79°
2026-05-05 17:37 55.43727 11.98871 5972 ft 293 kts 79°
2026-05-05 17:38 55.44057 12.02394 5580 ft 291 kts 78°
2026-05-05 17:38 55.44383 12.05901 5191 ft 289 kts 79°
2026-05-05 17:38 55.44706 12.09375 4826 ft 286 kts 79°
2026-05-05 17:38 55.45024 12.12794 4573 ft 280 kts 79°
2026-05-05 17:39 55.45334 12.16141 4309 ft 274 kts 79°
2026-05-05 17:39 55.45638 12.19427 4045 ft 269 kts 79°
2026-05-05 17:39 55.45938 12.22657 3784 ft 264 kts 79°
2026-05-05 17:39 55.46229 12.25824 3570 ft 258 kts 79°
2026-05-05 17:40 55.46508 12.28900 3454 ft 249 kts 79°
2026-05-05 17:40 55.46775 12.31863 3311 ft 240 kts 79°
2026-05-05 17:40 55.47032 12.34715 3183 ft 231 kts 79°
2026-05-05 17:40 55.47276 12.37446 3077 ft 221 kts 78°
2026-05-05 17:41 55.47511 12.40054 2991 ft 209 kts 78°
2026-05-05 17:41 55.47926 12.42406 2960 ft 197 kts 59°
2026-05-05 17:41 55.48741 12.44245 2783 ft 191 kts 39°
2026-05-05 17:41 55.49735 12.45767 2553 ft 188 kts 39°
2026-05-05 17:42 55.50710 12.47260 2321 ft 184 kts 39°
2026-05-05 17:42 55.51669 12.48730 2048 ft 179 kts 39°
2026-05-05 17:42 55.52578 12.50127 1804 ft 167 kts 39°
2026-05-05 17:42 55.53422 12.51425 1578 ft 153 kts 38°
2026-05-05 17:43 55.54193 12.52611 1387 ft 140 kts 39°
2026-05-05 17:43 55.54912 12.53716 1201 ft 135 kts 39°
2026-05-05 17:43 55.55610 12.54797 1023 ft 133 kts 40°
2026-05-05 17:43 55.56302 12.55868 840 ft 133 kts 38°
2026-05-05 17:44 55.56998 12.56940 644 ft 133 kts 38°
2026-05-05 17:44 55.57695 12.58011 471 ft 133 kts 38°
2026-05-05 17:44 55.58389 12.59083 272 ft 132 kts 37°
2026-05-05 17:44 55.59084 12.60156 119 ft 133 kts 37°
2026-05-05 17:45 55.59773 12.61204 27 ft 121 kts 39°
2026-05-05 17:45 55.60282 12.61990 24 ft 76 kts 41°
2026-05-05 17:45 55.60602 12.62486 27 ft 49 kts 41°
2026-05-05 17:45 55.60813 12.62776 26 ft 22 kts 29°
2026-05-05 17:46 55.60949 12.62860 25 ft 19 kts 12°
2026-05-05 17:46 55.61061 12.62900 24 ft 16 kts 11°
2026-05-05 17:46 55.61170 12.62984 26 ft 18 kts 40°
2026-05-05 17:46 55.61270 12.63139 24 ft 20 kts 41°
2026-05-05 17:47 55.61383 12.63314 24 ft 23 kts 41°
2026-05-05 17:47 55.61507 12.63506 24 ft 25 kts 41°
2026-05-05 17:47 55.61643 12.63714 24 ft 27 kts 40°
2026-05-05 17:47 55.61787 12.63938 24 ft 28 kts 41°
2026-05-05 17:48 55.61905 12.64096 24 ft 19 kts 25°
2026-05-05 17:48 55.62034 12.64205 25 ft 22 kts 25°
2026-05-05 17:48 55.62168 12.64317 24 ft 18 kts 24°
2026-05-05 17:48 55.62261 12.64447 22 ft 16 kts 63°
2026-05-05 17:49 55.62297 12.64590 24 ft 12 kts 66°
2026-05-05 17:49 55.62335 12.64737 26 ft 14 kts 66°
2026-05-05 17:49 55.62349 12.64878 24 ft 11 kts 114°
2026-05-05 17:49 55.62304 12.65004 24 ft 13 kts 123°
2026-05-05 17:50 55.62284 12.65153 24 ft 14 kts 63°
2026-05-05 17:50 55.62350 12.65204 24 ft 12 kts 358°
2026-05-05 17:50 55.62440 12.65199 24 ft 13 kts 357°
2026-05-05 17:50 55.62535 12.65184 24 ft 15 kts 358°
2026-05-05 17:51 55.62633 12.65185 24 ft 11 kts
2026-05-05 17:51 55.62690 12.65130 24 ft 10 kts 290°
2026-05-05 17:51 55.62699 12.65083 24 ft 0 kts 289°